Wind_Speed
25 25 25 25 25 26 27 28 29 27 27 26 28 29 29 29 30 31 31 32 33 33 35 36 37 38 40 41 42 43 45 46 47 48 48 48 48 48 49 50 50 50 50 50
23 24 25 25 24 24 26 27 27 27 26 26 27 28 28 29 30 30 29 30 31 32 32 33 34 36 37 39 40 41 42 44 44 45 46 46 46 45 46 47 49 50 50 50
22 23 25 24 23 24 25 26 27 26 24 26 27 27 27 28 28 28 29 29 30 30 31 31 31 33 34 36 37 38 39 40 41 43 43 43 44 43 43 44 46 47 48 48
23 23 24 23 22 23 24 24 25 24 24 25 26 27 27 27 28 28 28 28 29 29 30 31 31 32 32 33 34 35 36 37 37 38 39 40 40 40 41 42 42 44 46 46
24 24 23 22 22 23 23 22 23 24 25 26 26 27 28 28 27 28 28 28 28 28 29 29 30 30 30 31 33 33 34 34 34 35 36 37 37 37 38 39 40 40 41 42
24 24 24 22 22 23 23 23 23 24 25 26 27 27 27 27 28 28 29 29 28 28 29 29 29 29 30 31 31 32 33 33 33 33 34 34 34 35 35 36 36 37 38 39
24 24 24 23 23 23 23 23 23 24 24 26 27 27 26 27 28 28 29 29 29 29 29 29 30 30 30 30 31 31 31 32 32 32 32 32 33 34 34 35 35 36 36 37
24 24 23 23 23 24 24 24 24 23 24 24 25 25 26 27 27 27 28 28 28 29 29 29 29 29 29 28 29 29 30 30 31 31 31 32 32 33 34 34 34 34 35 36
23 23 23 23 23 23 23 23 23 23 23 23 24 25 25 26 26 27 27 27 28 27 27 27 27 28 28 28 28 27 28 29 29 30 30 31 31 32 32 32 33 33 34 34
23 23 23 23 23 23 23 23 23 23 23 24 24 24 24 24 25 25 26 26 26 25 25 26 26 27 27 27 26 26 27 27 28 29 29 30 31 31 32 32 33 33 34 33
23 23 24 24 24 23 23 23 23 23 23 23 24 24 23 22 22 24 25 25 25 25 25 26 26 26 25 24 24 25 25 25 26 27 27 28 29 30 30 31 31 31 31 32
22 23 24 24 24 24 24 24 24 23 24 24 24 23 23 22 23 23 24 24 24 24 24 24 23 23 23 22 23 23 23 24 25 26 26 27 27 27 28 29 29 30 30 30
23 23 23 23 23 23 24 24 24 24 24 24 23 23 23 23 23 22 23 22 22 22 22 22 21 21 21 21 21 21 22 22 23 25 25 25 25 25 26 26 27 27 28 28
22 22 22 22 22 22 22 23 23 23 23 23 22 22 22 22 22 22 23 23 22 21 21 21 21 20 20 21 21 20 20 20 20 20 21 22 22 23 24 24 25 25 26 26
20 19 20 20 20 20 21 21 21 21 21 21 21 21 21 21 21 21 21 21 21 21 20 20 20 20 21 21 20 20 19 19 19 19 20 20 20 21 22 22 22 23 23 24
17 17 18 18 18 19 19 19 19 19 19 20 19 19 19 19 19 19 19 19 19 19 19 19 20 20 20 20 19 19 19 19 19 19 19 18 18 19 20 19 19 20 21 22
16 16 16 17 17 17 18 18 18 18 18 18 18 18 18 18 18 18 18 18 18 18 18 19 19 19 18 18 18 18 18 18 18 18 17 17 17 18 18 19 19 19 19 20
16 16 16 17 17 17 16 17 17 17 17 18 18 17 17 17 17 18 18 18 18 18 18 18 18 18 17 17 17 17 17 17 17 17 16 16 16 17 17 18 18 18 19 19
17 17 17 17 17 17 16 17 17 17 17 17 17 17 17 17 17 17 17 18 18 17 18 18 18 18 17 17 17 17 17 17 17 17 16 15 15 16 16 17 17 17 17 17
16 17 17 17 16 16 16 16 16 16 16 17 16 16 17 16 16 16 16 17 17 17 18 18 18 18 17 17 17 17 17 17 16 15 16 15 15 15 15 15 14 15 15 15
15 15 15 15 15 16 16 16 16 16 16 16 16 16 16 16 15 15 16 16 17 17 18 18 18 18 18 17 17 17 16 16 15 15 15 15 15 15 14 14 14 14 14 14
15 15 15 15 15 16 16 16 16 16 16 16 16 16 15 15 16 16 17 17 18 19 19 19 18 18 18 17 17 16 16 15 15 14 14 14 14 14 14 14 14 13 13 14
14 14 14 14 15 15 15 15 15 15 15 15 15 15 15 16 17 18 18 19 19 20 20 19 18 18 17 17 16 16 15 14 13 13 13 13 13 14 14 14 14 14 13 13
14 14 14 14 14 15 15 15 15 15 15 15 15 15 16 17 18 18 19 19 20 20 20 19 18 17 17 16 15 15 14 14 13 13 13 14 14 14 14 14 14 13 13 13
14 15 15 14 15 15 15 15 15 15 15 15 15 15 16 17 18 18 19 19 20 19 19 18 17 16 16 15 15 15 14 14 13 13 13 13 13 13 13 13 13 13 13 13
15 15 15 15 15 15 15 15 15 15 15 15 15 16 17 17 18 19 19 19 19 18 17 16 16 15 15 15 14 14 14 14 13 13 12 12 12 12 12 12 12 12 12 12
15 15 16 16 16 15 15 15 15 15 15 15 16 17 17 18 18 19 19 18 17 17 16 15 15 15 14 14 14 14 14 13 13 12 12 11 11 11 11 11 11 11 11 11
Wind_Direction
267 266 264 263 263 262 263 267 269 271 272 273 275 275 275 275 275 275 276 277 276 273 271 269 267 265 265 264 265 264 263 262 261 260 261 260 259 259 258 257 256 255 256 257
266 266 265 264 264 264 265 267 269 270 270 271 274 275 274 275 276 277 278 278 278 277 275 272 269 268 267 266 267 266 265 264 262 261 261 260 259 258 257 257 257 256 256 256
267 266 267 265 265 268 270 269 269 270 271 272 274 277 278 278 279 280 279 280 280 279 278 276 273 271 270 270 269 267 266 265 263 261 260 260 259 257 257 258 258 258 257 256
267 267 269 270 268 270 272 271 269 270 272 274 276 277 279 280 281 282 283 282 281 280 280 280 278 275 273 271 270 268 266 265 264 262 261 260 259 258 258 259 260 259 257 255
268 268 270 270 271 271 271 270 271 272 274 276 278 279 280 281 283 283 283 285 284 283 281 280 279 278 276 275 272 270 268 266 266 263 262 260 259 258 258 259 260 259 256 254
268 269 272 274 273 272 272 271 272 274 276 278 280 281 281 282 283 282 283 284 284 285 283 281 280 279 278 278 274 272 270 268 266 264 262 260 258 257 257 259 260 259 257 254
268 268 271 273 273 272 273 275 275 277 279 280 281 282 281 282 283 283 285 284 283 284 284 283 281 282 281 279 276 273 271 268 265 263 261 259 258 258 259 259 259 259 258 256
268 268 271 273 272 272 274 275 276 278 280 282 282 283 282 283 283 284 285 285 284 285 284 283 282 281 281 281 278 275 271 267 264 263 262 260 260 260 261 260 260 260 259 258
269 270 271 271 272 273 274 275 276 278 281 282 283 284 285 284 284 285 287 287 286 285 283 281 281 281 281 281 278 275 271 267 264 263 262 261 261 261 262 261 261 261 259 258
268 268 269 270 272 274 275 274 276 278 281 282 284 285 287 286 285 286 288 288 288 286 285 283 282 281 281 281 278 274 272 269 265 263 263 262 262 261 261 261 261 261 259 257
268 269 270 271 273 274 275 275 275 277 280 282 283 285 286 286 286 288 289 289 289 290 290 288 285 282 281 281 280 276 273 270 267 264 263 263 263 263 262 261 261 260 259 258
269 271 273 273 273 273 274 275 276 278 280 282 284 284 284 286 287 290 291 291 291 291 292 290 286 284 282 282 280 278 274 270 267 265 265 267 266 264 263 263 261 260 259 257
270 271 273 272 272 274 274 275 277 278 280 282 284 284 284 285 287 290 291 292 294 294 293 291 288 286 285 284 281 279 277 274 270 268 267 267 266 266 266 264 261 259 258 257
269 270 271 271 272 274 275 277 278 277 278 281 283 283 284 286 288 289 290 292 294 296 294 291 289 289 287 285 284 282 280 276 273 270 269 268 269 268 267 263 261 260 259 258
269 271 273 273 274 276 277 277 277 277 279 281 282 283 286 288 289 289 289 291 293 294 294 293 292 291 288 286 285 283 281 278 275 273 272 272 270 269 266 263 261 260 259 258
270 273 276 276 276 279 279 278 277 278 280 282 284 285 287 290 291 289 289 289 290 292 292 292 293 294 292 288 286 284 282 280 278 276 274 272 269 269 266 263 265 265 262 260
272 274 276 276 277 279 279 277 277 278 279 281 283 286 289 291 291 290 288 289 290 290 293 295 296 296 294 291 288 286 283 282 281 278 275 273 271 270 268 266 267 266 264 263
272 273 274 275 276 278 279 278 277 278 279 280 283 286 289 291 293 291 288 287 288 290 292 295 296 297 295 292 290 286 284 282 281 280 277 275 273 270 269 270 270 267 265 264
274 274 275 276 276 277 278 279 279 279 279 280 282 286 290 292 292 292 290 287 286 288 290 293 294 292 292 291 289 287 284 282 282 279 276 275 272 271 271 271 269 267 265 263
279 278 278 278 277 277 278 279 280 281 280 281 282 285 288 290 291 292 292 291 289 289 290 292 293 293 292 292 291 289 287 284 281 276 275 273 269 269 271 272 271 267 266 263
283 281 281 280 278 279 280 281 281 280 281 281 283 286 287 288 290 292 293 294 293 293 293 292 292 292 292 292 291 289 288 286 280 275 275 272 268 267 269 269 269 268 266 263
285 283 281 280 280 282 284 284 281 279 279 280 282 284 285 287 289 292 295 296 296 296 295 294 292 291 291 291 290 289 287 285 280 277 276 273 268 268 270 270 270 269 268 266
287 285 284 282 282 285 287 286 282 279 279 279 281 283 284 287 290 292 294 295 296 297 296 294 292 291 289 288 288 289 289 286 281 278 277 273 271 270 271 271 272 272 271 269
289 288 287 285 285 287 287 286 284 282 281 280 282 284 286 289 292 294 295 296 297 297 296 295 292 289 287 287 287 287 286 284 282 279 276 271 269 270 271 272 273 273 271 269
287 288 287 286 287 287 286 284 284 283 282 282 283 286 289 293 295 296 297 298 298 296 295 294 294 290 287 287 287 285 284 284 284 281 276 272 269 269 270 272 273 273 272 270
288 288 287 286 286 286 285 283 283 283 282 282 285 289 292 295 296 298 299 299 298 295 293 292 292 292 289 287 286 285 284 284 283 280 275 272 271 271 272 272 271 272 271 268
289 289 288 287 286 285 284 283 282 283 284 284 286 290 294 297 299 299 300 301 299 295 291 290 290 290 289 288 286 285 284 283 281 277 273 271 270 270 270 271 271 271 270 266
Height
5576 5575 5576 5576 5576 5576 5576 5576 5576 5577 5577 5577 5574 5572 5571 5570 5569 5568 5567 5565 5564 5563 5561 5561 5560 5560 5559 5559 5559 5559 5559 5559 5560 5561 5561 5562 5563 5564 5566 5567 5569 5571 5574 5576
5569 5568 5568 5568 5569 5568 5568 5568 5568 5568 5568 5567 5565 5564 5563 5561 5560 5559 5557 5556 5554 5553 5551 5550 5549 5548 5548 5547 5547 5546 5546 5546 5546 5547 5548 5549 5550 5551 5552 5554 5556 5558 5560 5563
5562 5561 5561 5562 5563 5562 5561 5561 5560 5560 5561 5559 5557 5556 5554 5553 5551 5550 5548 5547 5545 5543 5541 5540 5539 5538 5537 5536 5535 5534 5533 5533 5534 5534 5535 5536 5537 5538 5540 5541 5542 5544 5547 5550
5555 5555 5555 5558 5556 5555 5554 5553 5552 5552 5552 5551 5549 5548 5546 5544 5543 5541 5539 5538 5536 5534 5532 5530 5529 5528 5526 5525 5524 5522 5522 5521 5521 5522 5523 5524 5525 5526 5528 5529 5530 5532 5534 5537
5548 5547 5548 5549 5549 5547 5546 5547 5546 5545 5544 5543 5541 5540 5539 5536 5534 5533 5531 5529 5527 5525 5523 5521 5519 5518 5516 5514 5513 5511 5511 5510 5510 5511 5512 5512 5514 5515 5516 5517 5518 5520 5522 5524
5541 5540 5541 5543 5541 5540 5540 5540 5539 5537 5536 5535 5533 5533 5532 5529 5526 5524 5522 5520 5518 5516 5514 5512 5510 5508 5506 5504 5502 5501 5501 5500 5500 5501 5501 5502 5504 5505 5506 5507 5508 5509 5511 5513
5534 5533 5534 5535 5533 5533 5534 5534 5531 5529 5529 5527 5526 5525 5523 5520 5518 5516 5514 5512 5509 5507 5505 5503 5501 5498 5496 5495 5493 5492 5492 5491 5491 5492 5492 5493 5494 5495 5496 5497 5498 5499 5501 5502
5527 5526 5529 5527 5526 5526 5526 5524 5523 5522 5521 5519 5518 5516 5514 5512 5509 5507 5505 5503 5500 5498 5496 5494 5491 5489 5488 5486 5485 5483 5483 5482 5482 5483 5483 5484 5485 5485 5486 5487 5488 5489 5491 5492
5521 5522 5520 5519 5518 5518 5517 5516 5515 5514 5513 5512 5510 5508 5506 5504 5501 5499 5497 5494 5492 5489 5487 5485 5483 5481 5480 5478 5476 5475 5474 5474 5474 5474 5475 5475 5476 5476 5477 5477 5478 5480 5481 5483
5513 5513 5512 5511 5510 5510 5510 5509 5508 5507 5506 5504 5502 5500 5498 5496 5494 5492 5489 5486 5484 5481 5478 5476 5474 5473 5471 5470 5468 5467 5466 5466 5466 5466 5466 5466 5467 5467 5468 5468 5469 5470 5471 5473
5505 5505 5504 5504 5503 5503 5502 5501 5500 5499 5498 5497 5495 5493 5491 5489 5487 5484 5482 5479 5476 5474 5471 5469 5467 5465 5464 5462 5461 5460 5459 5458 5458 5458 5458 5458 5458 5458 5459 5459 5459 5460 5462 5463
5498 5498 5497 5497 5496 5495 5495 5494 5493 5492 5491 5489 5488 5486 5484 5482 5480 5478 5475 5472 5470 5467 5464 5462 5460 5458 5457 5456 5454 5453 5451 5450 5450 5450 5450 5450 5450 5450 5450 5450 5451 5452 5453 5455
5490 5490 5489 5489 5488 5487 5487 5486 5485 5484 5483 5482 5480 5479 5477 5475 5473 5471 5469 5467 5464 5461 5459 5456 5454 5452 5451 5449 5447 5446 5444 5443 5443 5442 5442 5442 5442 5442 5442 5442 5443 5444 5445 5446
5483 5482 5482 5481 5481 5480 5479 5479 5478 5477 5476 5475 5473 5472 5470 5468 5466 5465 5463 5461 5458 5456 5453 5451 5449 5447 5445 5443 5441 5440 5438 5437 5436 5436 5436 5435 5435 5435 5435 5436 5436 5436 5437 5438
5476 5476 5475 5475 5474 5473 5472 5472 5471 5470 5469 5468 5467 5465 5464 5462 5460 5459 5457 5455 5453 5451 5448 5446 5444 5442 5440 5438 5436 5434 5433 5432 5431 5431 5430 5429 5429 5429 5429 5429 5429 5430 5430 5431
5470 5469 5469 5468 5468 5467 5466 5465 5464 5464 5463 5462 5460 5459 5458 5456 5455 5453 5451 5449 5448 5446 5444 5441 5439 5437 5435 5433 5431 5429 5428 5427 5426 5425 5424 5424 5423 5423 5423 5423 5423 5423 5423 5423
5464 5463 5463 5462 5462 5461 5460 5459 5459 5458 5457 5456 5455 5454 5452 5451 5449 5447 5446 5444 5442 5441 5439 5437 5435 5432 5430 5428 5426 5425 5423 5422 5421 5420 5419 5418 5418 5417 5417 5417 5417 5417 5416 5416
5458 5458 5457 5457 5456 5455 5454 5453 5453 5452 5451 5451 5450 5449 5447 5446 5444 5442 5441 5439 5438 5436 5434 5432 5430 5428 5425 5423 5421 5420 5418 5417 5416 5415 5414 5413 5412 5412 5412 5411 5411 5410 5410 5410
5453 5452 5451 5451 5450 5449 5449 5448 5447 5447 5446 5445 5445 5443 5442 5441 5439 5437 5435 5434 5433 5431 5429 5427 5425 5423 5421 5419 5416 5414 5413 5412 5410 5409 5408 5408 5407 5407 5406 5406 5405 5405 5404 5404
5447 5446 5446 5445 5444 5444 5443 5443 5442 5441 5441 5440 5439 5438 5437 5435 5434 5432 5430 5429 5427 5426 5424 5422 5420 5418 5416 5413 5411 5410 5408 5406 5405 5404 5403 5403 5402 5401 5401 5400 5400 5399 5399 5399
5441 5441 5440 5439 5439 5439 5438 5437 5436 5436 5435 5435 5434 5433 5432 5430 5429 5427 5426 5424 5423 5421 5419 5416 5414 5412 5410 5408 5406 5404 5403 5401 5400 5399 5398 5397 5397 5396 5396 5396 5395 5395 5395 5394
5436 5435 5435 5434 5434 5433 5433 5432 5431 5430 5430 5429 5429 5428 5427 5426 5424 5423 5421 5420 5418 5415 5413 5411 5409 5406 5404 5403 5401 5399 5397 5396 5395 5394 5393 5392 5392 5391 5391 5391 5390 5390 5390 5389
5431 5430 5430 5429 5429 5428 5427 5426 5426 5425 5425 5424 5423 5422 5421 5420 5419 5418 5416 5414 5412 5410 5407 5405 5403 5400 5399 5397 5395 5394 5392 5391 5390 5389 5388 5387 5387 5387 5386 5386 5385 5385 5385 5385
5426 5426 5425 5424 5424 5423 5422 5421 5421 5420 5419 5419 5418 5417 5416 5415 5413 5411 5410 5408 5406 5403 5401 5399 5397 5395 5393 5392 5390 5389 5388 5386 5385 5384 5383 5383 5382 5382 5381 5381 5380 5380 5380 5380
5422 5421 5420 5419 5419 5418 5417 5416 5415 5415 5414 5413 5413 5412 5411 5409 5407 5405 5403 5401 5399 5397 5395 5393 5391 5389 5388 5387 5385 5384 5383 5381 5380 5379 5378 5378 5377 5377 5376 5376 5375 5375 5375 5375
5417 5416 5415 5414 5413 5413 5412 5411 5410 5410 5409 5408 5407 5406 5405 5403 5401 5400 5397 5395 5393 5391 5389 5388 5386 5384 5383 5382 5380 5379 5378 5377 5376 5375 5374 5373 5373 5372 5371 5371 5370 5370 5370 5370
5412 5411 5410 5409 5408 5407 5406 5406 5405 5404 5404 5403 5402 5401 5399 5397 5396 5394 5392 5389 5387 5385 5384 5382 5381 5380 5378 5377 5376 5375 5373 5372 5371 5370 5370 5369 5368 5368 5367 5367 5366 5366 5365 5365